Tracking 20060 objects as of 6-Dec-2019
HD Live streaming from Space Station
objects crossing your sky now

COSMOS 342

Track COSMOS 342 now!
10-day predictions
COSMOS 342 is classified as:


NORAD ID: 4389
Int'l Code: 1970-036G
Perigee: 1,317.3 km
Apogee: 1,474.9 km
Inclination: 74.0 °
Period: 113.5 minutes
Semi major axis: 7767 km
RCS: 0.743 m2 (medium)
Launch date: April 25, 1970
Source: Commonwealth of Independent States (former USSR) (CIS)
Launch site: PLESETSK MISSILE AND SPACE COMPLEX (PKMTR)
aabbcc
Your satellite tracking list
Your tracking list is empty




NASA's NSSDC Master Catalog

Two Line Element Set (TLE):
1  4389U 70036G   19339.63303751 -.00000017 +00000-0 -17427-5 0  9999
2  4389 074.0312 051.1773 0101484 002.3423 103.8411 12.68283566296663
Source of the keplerian elements: AFSPC